Wind_Speed
16 16 16 16 16 15 15 14 13 12 10 8 6 5 5 5 5 5 5 6 6 7 7 8 7 7 6 5 4 4 4 4 4 4 5 5 6 6 6 7 7 8 9 9 10 10 9 9 9
17 17 17 17 17 17 17 16 15 14 12 10 8 7 6 7 7 6 7 8 9 9 9 10 9 8 7 6 6 6 6 6 6 6 6 6 6 7 7 8 8 8 9 9 10 10 10 10 9
18 18 18 18 18 18 19 18 17 16 13 12 10 8 8 8 8 9 10 10 11 11 11 11 11 9 9 8 8 8 8 8 8 8 8 8 8 8 9 9 9 9 10 10 10 10 10 10 10
18 18 19 20 20 20 21 20 19 18 16 14 12 10 9 9 10 10 12 12 12 12 13 12 12 11 10 10 9 9 9 9 9 10 10 10 10 10 10 11 11 11 11 11 11 11 11 11 11
19 19 20 20 22 23 22 22 21 20 19 16 14 12 10 10 12 12 13 13 12 12 13 12 12 12 11 11 11 11 11 11 11 11 11 11 12 12 12 13 13 13 13 13 12 12 12 12 12
19 19 20 21 23 24 24 24 23 21 19 17 16 14 12 12 12 14 14 13 13 13 13 13 13 13 12 12 13 13 13 13 13 13 13 13 13 14 14 15 15 15 15 15 15 14 14 14 14
20 21 21 23 25 26 26 25 24 21 19 17 16 15 14 13 14 15 15 15 15 14 14 13 14 13 13 14 14 14 14 15 15 15 15 15 15 16 16 16 17 17 17 17 17 17 16 16 16
21 21 23 25 26 27 27 26 24 21 20 18 17 16 16 16 16 16 16 16 16 14 13 13 14 14 14 15 15 15 16 16 17 17 17 17 17 17 17 17 18 18 18 18 18 18 18 18 17
22 23 25 27 27 28 27 26 24 22 20 19 18 17 17 17 17 18 17 16 15 16 15 15 15 15 16 16 17 17 17 17 18 19 19 19 19 18 18 19 19 19 19 19 20 19 19 19 18
22 24 26 28 28 28 27 26 25 22 21 20 19 18 17 18 19 18 16 15 16 16 16 16 15 16 16 15 16 17 17 17 18 18 19 19 20 20 20 20 20 20 20 21 21 21 21 20 19
23 25 26 28 28 27 27 26 24 23 22 20 19 17 17 18 18 17 16 16 16 15 15 15 14 15 17 17 17 17 17 18 19 19 20 20 21 21 21 21 21 22 22 22 22 22 22 22 21
23 25 26 27 27 27 26 25 25 23 23 22 20 17 17 17 16 16 17 17 16 15 14 15 15 16 17 18 18 18 18 18 19 19 21 21 22 22 22 22 22 23 23 23 23 23 23 23 23
23 25 26 26 26 26 26 25 24 23 23 22 20 19 19 18 17 17 16 16 17 17 16 15 15 17 18 18 18 18 19 20 20 20 21 22 23 23 23 23 24 24 24 24 25 25 24 24 23
24 24 25 25 25 25 25 23 23 22 22 21 19 19 18 18 17 17 16 16 17 16 15 15 16 16 18 19 19 19 20 20 21 21 22 23 24 24 24 25 25 25 25 25 26 26 25 25 25
22 23 24 25 24 24 23 23 22 22 21 20 19 18 18 17 17 17 15 16 17 17 15 16 16 18 19 20 20 20 20 21 21 22 23 23 24 24 25 25 25 25 25 25 25 26 26 26 26
21 23 23 23 23 22 22 22 20 19 19 19 18 18 17 17 16 16 16 16 15 15 16 16 16 17 18 19 19 20 20 21 21 22 23 24 24 25 25 26 26 25 26 26 26 26 26 26 27
20 21 22 23 22 22 20 19 18 17 17 17 17 17 17 17 17 17 16 15 15 15 16 16 16 17 18 18 19 20 20 21 21 22 24 25 26 26 27 27 27 27 26 26 27 27 27 27 28
19 20 21 21 20 19 18 16 16 17 16 16 16 16 16 17 17 16 16 16 17 16 16 15 16 17 18 18 19 20 20 21 22 23 24 25 26 26 27 28 28 28 28 28 28 27 27 28 28
19 19 19 19 19 18 17 16 16 15 15 14 14 15 16 17 17 17 16 16 16 17 17 17 18 18 18 19 20 20 20 21 21 22 24 25 26 27 28 28 29 28 29 29 29 28 28 29 29
18 19 19 18 17 16 16 16 15 14 12 14 14 15 15 16 17 17 16 16 16 17 17 18 18 18 19 20 21 21 20 20 21 22 23 24 24 26 27 27 27 28 28 29 29 29 29 29 30
18 17 17 17 17 16 16 16 14 12 12 13 13 15 15 16 16 16 17 18 17 17 17 17 18 18 19 20 20 21 21 21 22 23 23 24 25 26 27 27 28 28 29 29 29 29 29 30 30
16 16 16 16 16 16 16 15 14 12 12 13 14 14 14 14 15 17 17 18 19 20 19 19 19 19 20 20 21 22 22 23 23 24 24 25 26 26 26 27 28 28 29 29 30 29 29 29 29
16 17 17 16 15 16 15 16 14 13 12 13 13 14 15 15 17 17 18 18 19 20 21 21 21 21 21 22 22 23 24 24 24 25 26 26 26 27 27 28 28 28 28 28 28 29 28 29 29
16 16 17 16 15 15 15 16 14 13 13 13 13 14 15 16 16 16 17 19 19 20 21 22 22 22 22 23 23 24 25 25 25 26 26 27 27 27 28 28 28 28 28 28 28 28 28 28 28
17 16 16 16 16 16 15 16 15 13 13 14 14 14 15 15 15 16 16 18 19 20 21 22 23 23 24 24 24 25 26 26 26 26 27 28 27 27 28 28 28 28 28 28 29 28 28 28 28
17 17 16 16 16 16 16 16 15 14 14 14 15 15 15 15 15 16 17 18 20 21 21 22 23 24 24 25 26 26 27 27 28 28 28 28 28 28 28 28 28 29 29 29 29 29 29 28 28
16 16 16 17 17 17 16 15 14 14 14 15 15 15 15 15 16 17 19 20 21 21 21 22 23 24 25 25 26 27 28 29 29 29 29 28 28 28 28 28 28 28 28 28 28 28 29 29 28
17 17 17 17 17 17 16 16 15 14 14 14 15 15 16 17 18 19 20 22 22 21 22 23 24 25 25 26 26 27 28 28 29 28 28 28 27 27 27 27 28 28 28 28 28 28 28 28 28
15 16 17 17 17 17 17 16 15 15 15 16 16 17 18 19 19 20 21 22 21 22 22 23 24 24 25 26 26 26 27 27 28 27 27 27 27 27 27 27 26 26 26 26 26 27 27 26 26
15 16 16 16 17 17 18 17 16 16 16 16 17 18 19 20 20 20 21 22 23 23 24 24 24 25 25 25 25 26 26 27 27 26 26 26 26 26 26 25 25 25 25 25 25 26 25 25 25
Wind_Direction
240 235 232 232 232 231 231 235 236 240 238 246 255 268 278 295 303 308 308 300 291 285 281 280 275 269 266 265 264 265 269 273 276 277 278 285 292 298 303 308 312 315 317 319 323 325 324 324 325
240 235 231 230 230 230 230 233 233 237 239 244 254 266 279 290 294 295 300 297 286 283 277 274 275 265 261 261 262 263 267 269 271 273 275 277 282 288 293 298 302 306 309 311 313 316 316 315 315
238 234 231 230 228 229 229 232 234 237 238 242 249 266 278 292 295 292 296 290 284 279 272 267 268 264 262 261 259 260 263 267 270 272 274 276 278 281 286 289 292 297 301 304 305 307 308 308 307
236 233 230 228 225 228 229 233 234 235 236 241 249 264 278 288 293 291 295 287 280 280 271 263 262 259 259 261 261 261 263 266 268 270 272 274 276 277 280 283 286 290 293 295 297 299 300 299 299
234 231 228 225 225 228 230 232 233 234 237 243 254 265 278 286 293 292 293 287 284 283 273 264 259 255 255 258 260 262 263 265 267 268 269 272 275 277 278 280 282 285 287 288 289 290 291 291 291
234 230 226 223 225 228 230 231 234 234 241 248 258 267 276 282 288 290 289 286 286 280 276 267 256 252 252 254 258 261 263 265 267 269 269 272 275 278 280 281 283 284 285 284 284 284 284 284 285
231 227 222 221 223 226 229 232 235 240 246 253 261 267 275 283 290 290 291 291 288 283 277 266 256 249 252 255 258 261 262 264 266 268 270 272 274 276 279 281 283 284 284 283 283 281 281 280 280
229 223 219 220 222 226 229 231 235 241 246 254 261 268 279 286 290 291 292 292 289 284 272 266 259 255 256 258 259 260 262 263 263 265 268 269 271 274 277 278 280 280 281 281 281 281 280 279 278
225 219 217 220 221 225 229 231 235 241 247 254 264 273 280 286 290 292 288 288 284 284 274 271 263 259 259 262 263 263 265 266 265 265 265 268 269 272 275 275 277 278 279 279 279 279 279 277 275
220 216 216 220 222 225 229 232 237 242 249 257 265 273 281 286 288 287 283 285 283 282 277 269 262 258 261 264 263 263 265 266 267 268 268 268 270 271 272 273 274 276 277 278 279 278 278 275 273
217 215 216 218 222 226 230 233 239 244 250 258 267 277 283 285 285 283 281 280 277 276 277 275 264 260 259 259 261 263 263 265 267 270 269 270 273 271 270 271 273 275 275 276 277 278 278 276 272
214 214 216 219 223 227 231 236 241 247 253 260 270 278 281 283 286 285 278 279 277 276 277 274 264 258 258 260 261 262 262 264 267 270 270 269 269 270 272 271 273 274 274 274 276 277 277 276 273
211 214 216 220 223 228 233 238 245 252 258 265 273 278 281 283 284 282 285 282 279 277 274 267 262 261 260 259 260 262 263 265 266 267 269 268 269 271 272 271 273 276 275 274 273 276 276 273 271
212 215 218 221 225 230 234 241 246 254 260 266 272 278 280 282 283 283 284 282 276 273 268 265 263 261 260 260 260 260 261 263 265 267 267 268 269 271 272 272 274 275 274 274 273 275 273 269 267
214 217 220 223 228 233 238 243 250 258 262 266 272 275 277 281 282 283 282 281 276 269 265 268 263 261 261 262 261 263 263 264 266 266 267 268 270 272 272 273 274 274 273 274 274 273 273 270 267
217 218 222 227 231 234 239 245 251 257 263 268 271 273 275 278 278 278 280 281 278 271 268 269 265 266 265 267 268 267 268 270 270 268 268 269 270 271 272 273 274 273 273 274 273 273 274 272 270
218 218 222 227 232 237 240 245 250 255 262 267 269 271 273 274 274 277 280 280 279 275 274 272 272 273 272 272 271 270 271 272 272 271 270 270 270 272 273 273 273 273 275 275 273 273 275 274 273
217 217 221 226 232 238 242 245 247 252 259 264 268 270 271 271 270 275 280 281 280 279 278 275 277 277 277 277 276 273 273 273 272 273 272 272 273 273 274 273 273 273 274 275 274 274 275 274 272
220 220 222 226 233 237 240 244 250 253 256 261 267 269 270 273 275 279 281 283 283 283 282 281 281 280 279 280 279 278 277 276 276 275 275 276 275 274 274 274 273 273 274 275 274 274 274 273 272
221 221 224 230 235 238 241 246 252 254 261 261 263 267 272 275 276 283 284 280 281 283 283 282 282 280 278 279 280 280 280 279 278 279 278 279 278 277 277 276 276 274 275 274 273 275 276 274 273
218 222 227 234 239 243 248 253 255 258 270 269 267 269 278 281 279 283 285 282 280 281 282 281 281 282 281 280 280 280 281 281 282 282 281 281 281 280 278 277 276 275 274 275 274 275 275 273 272
221 226 232 240 245 250 254 257 260 267 272 275 276 273 279 279 278 280 283 284 280 279 280 280 282 285 285 284 283 283 283 283 283 283 283 283 283 282 280 278 277 276 275 274 274 273 273 272 270
226 232 237 244 250 254 257 263 268 271 274 278 281 279 279 279 279 281 283 284 285 283 280 280 281 284 284 283 283 282 282 283 283 284 283 283 283 283 281 279 278 276 275 274 274 274 273 272 269
234 239 244 248 253 257 261 268 271 271 279 282 286 286 281 280 283 283 285 285 286 285 283 281 281 282 283 284 284 283 283 284 284 285 285 284 284 283 281 280 279 277 276 275 275 275 274 273 271
238 243 248 251 255 260 265 271 275 276 281 285 288 288 285 285 286 286 289 289 287 285 284 283 282 282 283 284 285 285 285 286 286 286 286 285 284 282 281 279 278 277 276 275 275 274 273 272 272
240 246 250 255 260 264 266 271 277 281 284 287 289 287 287 287 288 290 291 292 290 287 287 286 285 286 285 286 287 287 288 288 288 287 286 285 284 282 280 279 277 276 276 275 274 273 273 272 271
244 248 254 259 263 265 267 273 276 279 283 287 289 290 290 288 288 289 293 293 291 290 288 286 285 285 286 287 288 288 288 288 288 287 287 286 284 283 281 279 278 277 276 275 274 274 273 272 271
248 251 255 259 263 265 268 274 279 282 285 287 288 290 293 292 289 288 290 292 292 291 289 288 287 286 286 287 289 290 289 289 288 288 287 286 284 283 281 279 278 278 277 276 275 274 274 273 272
250 253 256 261 266 270 274 277 282 286 286 287 289 289 292 292 293 289 291 292 292 290 291 291 291 291 290 290 291 291 290 289 289 288 287 286 285 284 282 280 279 279 278 277 276 275 274 274 273
252 257 261 264 268 271 278 283 284 286 287 286 287 290 293 292 293 293 295 296 294 290 291 291 292 293 293 293 293 292 291 290 290 290 288 287 285 284 283 282 281 281 280 278 277 277 276 274 274
Height
5875 5877 5879 5881 5883 5884 5884 5885 5885 5886 5887 5888 5889 5890 5891 5892 5893 5896 5894 5893 5894 5894 5895 5895 5895 5895 5896 5896 5896 5897 5897 5898 5899 5899 5900 5900 5900 5901 5901 5901 5901 5901 5901 5901 5901 5901 5900 5900 5900
5873 5875 5877 5879 5880 5881 5882 5882 5883 5884 5886 5887 5888 5889 5889 5890 5891 5892 5891 5892 5892 5893 5893 5894 5894 5894 5894 5895 5895 5896 5896 5897 5897 5898 5898 5899 5899 5900 5900 5900 5900 5900 5900 5900 5900 5900 5900 5899 5899
5870 5872 5875 5877 5878 5879 5880 5881 5882 5883 5885 5885 5886 5887 5888 5889 5889 5889 5890 5890 5890 5890 5891 5892 5892 5893 5893 5893 5894 5894 5895 5895 5896 5896 5897 5897 5898 5898 5898 5899 5899 5899 5899 5899 5899 5899 5898 5898 5898
5868 5870 5872 5874 5875 5876 5877 5878 5880 5881 5883 5884 5884 5885 5886 5887 5887 5888 5887 5888 5888 5888 5889 5889 5890 5891 5891 5892 5892 5893 5893 5894 5894 5895 5895 5895 5896 5896 5896 5897 5897 5897 5897 5897 5897 5897 5897 5897 5897
5865 5867 5869 5871 5872 5873 5874 5876 5877 5879 5880 5882 5883 5884 5884 5885 5885 5886 5886 5886 5886 5886 5887 5887 5888 5889 5889 5890 5890 5891 5891 5892 5892 5892 5893 5893 5893 5894 5894 5894 5894 5895 5895 5895 5895 5895 5895 5895 5895
5862 5864 5867 5868 5869 5871 5872 5873 5875 5877 5878 5880 5882 5882 5883 5883 5883 5884 5884 5884 5884 5885 5885 5885 5885 5886 5887 5887 5888 5889 5889 5890 5890 5890 5890 5891 5891 5891 5892 5892 5892 5892 5892 5892 5892 5892 5892 5892 5892
5860 5862 5863 5865 5866 5868 5869 5871 5873 5875 5877 5879 5880 5880 5880 5881 5881 5882 5882 5882 5883 5883 5882 5882 5883 5883 5884 5885 5885 5886 5886 5887 5887 5888 5888 5888 5889 5889 5889 5889 5889 5889 5889 5889 5889 5889 5889 5889 5890
5856 5859 5860 5862 5863 5865 5867 5869 5871 5873 5875 5876 5877 5878 5878 5879 5879 5880 5880 5880 5880 5879 5879 5880 5881 5882 5882 5882 5883 5883 5884 5884 5884 5885 5885 5886 5886 5886 5886 5886 5886 5886 5886 5885 5885 5885 5886 5886 5886
5852 5856 5857 5858 5860 5862 5864 5867 5869 5870 5873 5874 5875 5876 5876 5876 5877 5877 5877 5877 5878 5877 5877 5877 5878 5879 5879 5880 5880 5880 5881 5881 5881 5882 5882 5882 5883 5883 5883 5883 5883 5882 5882 5882 5882 5881 5881 5882 5882
5849 5851 5853 5855 5858 5859 5862 5865 5867 5869 5870 5871 5872 5873 5873 5874 5874 5874 5874 5875 5875 5874 5874 5874 5875 5875 5876 5876 5876 5877 5877 5878 5878 5878 5878 5879 5879 5879 5879 5879 5879 5879 5879 5878 5878 5878 5877 5878 5878
5845 5848 5850 5852 5854 5857 5860 5862 5864 5866 5868 5869 5869 5870 5870 5870 5870 5870 5870 5871 5871 5871 5871 5871 5871 5872 5872 5872 5873 5873 5874 5874 5874 5875 5875 5875 5875 5875 5875 5875 5875 5875 5874 5874 5874 5874 5873 5873 5874
5843 5845 5848 5850 5852 5855 5857 5860 5862 5863 5865 5866 5866 5866 5867 5867 5867 5867 5867 5867 5867 5867 5867 5867 5867 5868 5868 5869 5869 5869 5869 5870 5870 5870 5871 5871 5871 5871 5871 5871 5871 5870 5870 5870 5870 5869 5869 5869 5869
5840 5842 5845 5847 5850 5853 5855 5857 5859 5860 5862 5862 5863 5863 5863 5863 5863 5863 5863 5863 5863 5863 5863 5863 5864 5865 5864 5865 5865 5865 5865 5866 5866 5866 5866 5866 5866 5866 5866 5866 5866 5866 5865 5865 5865 5864 5864 5864 5864
5838 5840 5842 5845 5848 5851 5853 5855 5857 5857 5858 5859 5859 5860 5860 5860 5859 5859 5859 5860 5859 5859 5859 5860 5860 5860 5860 5860 5860 5860 5861 5861 5861 5862 5861 5861 5861 5861 5861 5861 5860 5860 5860 5860 5860 5859 5859 5858 5859
5836 5838 5841 5843 5846 5848 5851 5853 5854 5854 5855 5856 5857 5857 5857 5856 5856 5856 5856 5856 5856 5855 5855 5856 5856 5856 5856 5856 5856 5856 5856 5856 5856 5856 5856 5856 5856 5856 5855 5855 5855 5854 5854 5854 5854 5853 5853 5853 5853
5834 5837 5839 5842 5844 5846 5850 5850 5851 5852 5853 5853 5854 5854 5854 5854 5854 5853 5852 5852 5852 5852 5852 5852 5852 5852 5852 5852 5851 5851 5851 5851 5851 5851 5851 5850 5850 5850 5850 5849 5849 5849 5848 5848 5848 5848 5847 5847 5847
5832 5835 5837 5840 5842 5843 5846 5847 5848 5849 5850 5850 5851 5851 5851 5851 5850 5850 5849 5849 5849 5848 5848 5848 5848 5848 5848 5848 5847 5847 5847 5846 5846 5846 5845 5845 5844 5844 5843 5843 5843 5842 5842 5841 5841 5841 5841 5841 5841
5830 5833 5835 5837 5839 5841 5843 5844 5845 5846 5847 5848 5848 5848 5848 5847 5847 5847 5846 5846 5845 5845 5845 5844 5844 5844 5844 5843 5843 5842 5842 5841 5841 5840 5839 5838 5838 5837 5837 5836 5836 5835 5835 5835 5834 5834 5834 5834 5834
5829 5831 5833 5836 5837 5839 5840 5842 5843 5844 5844 5845 5845 5845 5844 5844 5844 5843 5843 5842 5841 5841 5841 5841 5840 5840 5839 5838 5838 5837 5837 5836 5835 5834 5833 5832 5831 5831 5830 5829 5829 5828 5828 5828 5828 5827 5827 5827 5827
5827 5830 5832 5834 5836 5837 5838 5840 5841 5841 5841 5842 5842 5842 5841 5841 5841 5840 5840 5840 5839 5838 5837 5837 5836 5835 5834 5834 5833 5832 5831 5830 5829 5828 5827 5826 5825 5824 5823 5822 5821 5821 5821 5820 5820 5820 5820 5819 5819
5826 5829 5831 5832 5834 5835 5836 5838 5839 5839 5839 5839 5839 5839 5838 5838 5837 5837 5836 5836 5835 5834 5833 5832 5831 5830 5829 5828 5827 5826 5825 5824 5823 5822 5821 5820 5819 5818 5816 5815 5814 5813 5813 5813 5813 5812 5812 5812 5812
5825 5827 5829 5830 5832 5833 5834 5835 5836 5836 5836 5836 5835 5835 5835 5834 5834 5833 5832 5832 5831 5830 5829 5828 5827 5825 5824 5823 5821 5820 5819 5818 5817 5816 5814 5813 5812 5811 5809 5808 5807 5806 5806 5805 5805 5804 5804 5804 5804
5824 5825 5827 5828 5829 5830 5831 5831 5833 5833 5833 5833 5833 5832 5831 5830 5830 5829 5828 5827 5826 5825 5824 5823 5822 5820 5819 5817 5816 5815 5813 5812 5810 5809 5808 5806 5805 5803 5802 5800 5799 5798 5798 5797 5797 5796 5796 5796 5796
5822 5824 5825 5825 5826 5827 5828 5828 5829 5830 5830 5830 5829 5828 5827 5826 5825 5824 5823 5822 5821 5820 5818 5817 5816 5814 5813 5811 5810 5808 5807 5805 5804 5802 5801 5799 5798 5796 5794 5793 5792 5791 5790 5790 5789 5789 5788 5788 5788
5820 5822 5823 5823 5823 5825 5825 5825 5827 5827 5826 5826 5825 5824 5824 5822 5821 5820 5819 5818 5816 5815 5813 5812 5810 5808 5806 5805 5803 5802 5800 5799 5797 5795 5793 5792 5790 5789 5787 5786 5784 5783 5782 5782 5781 5781 5780 5780 5780
5818 5820 5821 5821 5822 5822 5822 5822 5824 5823 5823 5822 5822 5821 5820 5819 5817 5816 5815 5813 5811 5810 5808 5806 5804 5802 5800 5798 5797 5795 5794 5792 5790 5788 5786 5784 5782 5781 5779 5778 5777 5775 5775 5774 5773 5773 5772 5772 5772
5815 5817 5818 5818 5818 5819 5819 5819 5820 5820 5819 5819 5818 5817 5816 5815 5813 5812 5810 5809 5806 5804 5802 5800 5798 5796 5794 5792 5790 5788 5786 5784 5782 5780 5778 5776 5774 5773 5771 5770 5769 5767 5766 5766 5765 5765 5764 5764 5764
5813 5814 5815 5815 5815 5815 5816 5816 5817 5816 5816 5815 5815 5814 5812 5811 5809 5807 5806 5803 5801 5799 5797 5795 5792 5790 5787 5785 5783 5781 5779 5777 5775 5773 5771 5769 5767 5765 5763 5762 5761 5760 5759 5758 5757 5757 5756 5756 5756
5810 5811 5811 5811 5811 5812 5811 5815 5813 5813 5812 5811 5811 5809 5808 5806 5805 5803 5801 5798 5796 5793 5791 5789 5786 5784 5781 5778 5776 5773 5771 5769 5767 5765 5763 5761 5759 5758 5756 5755 5753 5752 5751 5750 5749 5749 5748 5748 5748
5806 5807 5807 5808 5808 5808 5808 5812 5809 5808 5808 5807 5806 5805 5803 5802 5800 5798 5795 5793 5790 5788 5785 5783 5780 5777 5774 5772 5769 5766 5764 5762 5760 5758 5755 5754 5752 5750 5749 5747 5746 5744 5743 5742 5742 5741 5741 5740 5740